User: anonymous   Login
Location: Pella
(41.4080°N, 92.9160°W)
Time: 09:54:29
(UTC-06:00)
Language:

Iridium 91 - Orbit

View from above orbital plane
View from above orbital plane
View from above satellite
View from above satellite

Ground track
Ground track

The orbit data is extracted from the following two-line orbital elements,

1 27372U 02005A   14353.48683312  .00000157  00000-0  49087-4 0  6160
2 27372 086.3988 308.3648 0001918 077.1088 016.9258 14.34215881681099
Epoch (UTC): 19 December 2014 11:41:02
Eccentricity: 0.0001918
inclination: 86.3988°
perigee height: 776 km
apogee height: 779 km
right ascension of ascending node: 308.3648°
argument of perigee: 77.1088°
revolutions per day: 14.34215881
mean anomaly at epoch: 16.9258°
orbit number at epoch: 68109

The dashed part of the orbit path shows where the satellite is in the earth's shadow,  

DLR